Flag for Puerto Rico Weather past 2 weeks in San Juan, Puerto Rico

Now
77 °F

Passing clouds.


Feels Like: 79 °F
Forecast: 77 / 87 °F
Wind: No wind

Location: Luis Munoz Marin

Current Time: May 28, 2015 at 6:50:29 AM

Latest Report: May 28, 2015 at 5:56 AM


Visibility: 10 mi

Pressure: 29.95 "Hg

Humidity: 82%

Dew point: 71 °F

Location of San JuanLocation

Historic Weather in San Juan — Graph

°F

San Juan temperature yesterday

Maximum temperature yesterday: 86 °F (at 1:56 PM)
Minimum temperature yesterday: 77 °F (at 3:56 AM)
Average temperature yesterday: 81 °F

Past Weeks' High & Low Weather Summary

 TemperatureHumidityPressure
High90 °F (May 13, 11:56 AM)97% (May 20, 5:56 PM)30.14 "Hg (May 20, 5:56 PM)
Low76 °F (May 14, 4:56 AM)48% (May 13, 11:56 AM)29.92 "Hg (May 28, 2:56 AM)
Average82 °F77%30.04 "Hg
* Reported May 13 5:56 AM — May 28 5:56 AM, San Juan, Weather by CustomWeather, © 2015

Note: Actual official high and low records may vary slightly from our data, if they occured in-between our weather recording intervals... More about our weather records

Advertising

San Juan weather history for previous 24 hours

 ConditionsComfort  
Time TempWeatherWind HumidityBarometerVisibility
5:56 AM
Thu, May 28
77 °FPassing clouds.No wind82%29.95 "Hg10 mi
4:56 AM77 °FPassing clouds.No wind85%29.94 "Hg10 mi
3:56 AM77 °FPassing clouds.3 mph85%29.93 "Hg10 mi
2:56 AM77 °FPassing clouds.No wind82%29.92 "Hg10 mi
1:56 AM78 °FPassing clouds.3 mph79%29.94 "Hg10 mi
12:56 AM79 °FPassing clouds.3 mph77%29.96 "Hg10 mi
11:56 PM
Wed, May 27
80 °FPassing clouds.3 mph74%29.97 "Hg10 mi
10:56 PM80 °FPassing clouds.5 mph74%29.98 "Hg10 mi
9:56 PM80 °FPassing clouds.6 mph76%29.98 "Hg10 mi
8:56 PM81 °FPassing clouds.7 mph74%29.98 "Hg10 mi
7:56 PM81 °FPassing clouds.8 mph72%29.97 "Hg10 mi
6:56 PM81 °FBroken clouds.7 mph72%29.96 "Hg10 mi
5:56 PM82 °FScattered clouds.8 mph67%29.95 "Hg10 mi
4:56 PM82 °FScattered clouds.10 mph70%29.93 "Hg10 mi
3:56 PM84 °FScattered clouds.12 mph63%29.93 "Hg10 mi
2:56 PM85 °FScattered clouds.14 mph63%29.94 "Hg10 mi
1:56 PM86 °FScattered clouds.12 mph61%29.95 "Hg10 mi
12:56 PM85 °FScattered clouds.12 mph65%29.97 "Hg10 mi
11:56 AM84 °FScattered clouds.13 mph70%29.99 "Hg10 mi
10:56 AM85 °FScattered clouds.10 mph68%29.99 "Hg10 mi
9:56 AM83 °FScattered clouds.9 mph72%30.00 "Hg10 mi
8:56 AM82 °FScattered clouds.6 mph74%29.99 "Hg10 mi
7:56 AM81 °FPassing clouds.No wind74%29.98 "Hg10 mi
6:56 AM79 °FScattered clouds.No wind79%29.97 "Hg10 mi
Weather by CustomWeather, © 2015

See weather overviewHow to use our weather pages